Regional Weather Roundup
Issued by NWS

Home | Current Version | Previous Version | Graphics & Text | Print | Product List | Glossary On
Versions: 1 2 3 4 5 6 7 8 9 10 11 12 13 14 15 16 17 18 19 20 21 22 23 24 25 26 27 28 29 30 31 32 33 34 35 36 37 38 39 40 41 42 43 44 45 46 47 48 49 50
000
ASUS43 KOAX 221702
RWRNE

WEATHER ROUNDUP FOR NEBRASKA
NATIONAL WEATHER SERVICE OMAHA NE
1200 PM CDT FRI AUG 22 2014

NOTES: SATELLITE DATA IS BEING USED TO AUGMENT CLOUD COVER ABOVE
       12000 FEET.
       "FAIR" INDICATES FEW OR NO CLOUDS BELOW 12,000 FEET WITH NO
       SIGNIFICANT WEATHER AND/OR OBSTRUCTIONS TO VISIBILITY.

  * THESE STATIONS DO NOT REPORT WEATHER SUCH AS RAIN...SNOW OR FOG.

NEZ001>004-019>022-054>056-221800-
NEBRASKA PANHANDLE

CITY           SKY/WX    TMP DP  RH WIND       PRES   REMARKS
SCOTTSBLUFF    CLOUDY    70  56  61 VRB5      30.11S
ALLIANCE       CLOUDY    71  56  58 N5        30.10S
CHADRON        PTSUNNY   70  59  68 E9        30.08F
KIMBALL        CLOUDY    68  58  69 SW8       30.15S
SIDNEY         LGT RAIN  63  60  90 SW7       30.15R
$$

NEZ057>060-069>072-079>082-221800-
SOUTHWEST NEBRASKA

CITY           SKY/WX    TMP DP  RH WIND       PRES   REMARKS
NORTH PLATTE   PTSUNNY   78  59  51 N7        30.04S
IMPERIAL       CLOUDY    74  58  57 N10       30.07R
LEXINGTON      PTSUNNY   83  73  71 N9        30.01R
MCCOOK         MOSUNNY   87  58  37 NE17      30.00R
OGALLALA       CLOUDY    67  62  83 NW10      30.08R
$$

NEZ005>010-023>029-035>040-094-221800-
NORTH CENTRAL NEBRASKA

CITY           SKY/WX    TMP DP  RH WIND       PRES   REMARKS
VALENTINE      CLOUDY    76  64  66 SW8       30.03R
AINSWORTH      LGT RAIN  73  67  80 CALM      30.04S
BROKEN BOW     CLOUDY    84  72  67 N9        30.01S
O`NEILL        PTSUNNY   82  72  71 E7        30.01S
ORD            PTSUNNY   86  72  62 E8        29.98S HX  92
THEDFORD       CLOUDY    72  65  79 N6        30.05R
$$

NEZ041-046>049-061>064-073>077-083>087-221800-
SOUTH CENTRAL NEBRASKA

CITY           SKY/WX    TMP DP  RH WIND       PRES   REMARKS
GRAND ISLAND   SUNNY     84  70  62 N5        29.97F
AURORA         SUNNY     83  75  75 CALM      29.96S HX  91
HASTINGS       SUNNY     83  69  62 N8        29.97R
HEBRON         MOSUNNY   85  71  61 S10       29.95R HX  90
HOLDREGE       SUNNY     82  71  70 NE10      30.00S
KEARNEY *      MOSUNNY   81  72  74 N7        29.99F
YORK           PTSUNNY   84 N/A N/A CALM      29.96R
$$

NEZ011>018-030>034-042>045-221800-
NORTHEAST NEBRASKA

CITY           SKY/WX    TMP DP  RH WIND       PRES   REMARKS
NORFOLK        MOSUNNY   86  71  60 NE5       29.96S HX  91
ALBION         MOSUNNY   82  73  72 CALM      29.99S
BLAIR          MOSUNNY   85  74  69 NE3       29.93S HX  93
FREMONT        MOSUNNY   87  73  64 CALM      29.93S HX  94
TEKAMAH        SUNNY     90  77  65 NW3       29.92S HX 103
WAYNE          PTSUNNY   83  74  72 N8        29.97S HX  90
$$

NEZ050>053-065>068-078-088>093-221800-
SOUTHEAST NEBRASKA

CITY           SKY/WX    TMP DP  RH WIND       PRES   REMARKS
LINCOLN        MOSUNNY   88  72  58 SE5       29.92F HX  94
OMAHA EPPLEY   MOSUNNY   86  73  65 S6        29.92S HX  93
BEATRICE       PTSUNNY   83  73  72 S8        29.91S
FALLS CITY     LGT RAIN  74  71  91 N7        29.91F
NEBRASKA CITY  PTSUNNY   83  72  69 S6        29.93R THUNDER
PLATTSMOUTH    MOSUNNY   86  73  63 S5        29.92S HX  93
$$

NEZ044-045-051>053-067-221800-
OMAHA AREA

CITY           SKY/WX    TMP DP  RH WIND       PRES   REMARKS
OMAHA EPPLEY   MOSUNNY   86  73  65 S6        29.92S HX  93
BLAIR          MOSUNNY   85  74  69 NE3       29.93S HX  93
FREMONT        MOSUNNY   87  73  64 CALM      29.93S HX  94
MILLARD        SUNNY     87  75  68 SE5       29.91F HX  96
PLATTSMOUTH    MOSUNNY   86  73  63 S5        29.92S HX  93
WAHOO          FAIR      87  71  59 CALM      29.93R HX  92
$$



USA.gov is the U.S. government's official web portal to all federal, state and local government web resources and services.